User: anonymous   Login
Location: Unspecified
(0.0000°N, 0.0000°E)
Time: 06:14:58
(UTC+00:00)
Language:

BADR-B - Orbit

View from above orbital plane
View from above orbital plane
View from above satellite
View from above satellite

Ground track
Ground track

The orbit data is extracted from the following two-line orbital elements,

1 27003U 01056C   18199.45851220 -.00000023 +00000-0 +23003-4 0  9997
2 27003 099.4097 334.6901 0020622 027.3944 332.8286 13.70236345830039
Epoch (UTC): 18 July 2018 11:00:15
Eccentricity: 0.0020622
inclination: 99.4097°
perigee height: 983 km
apogee height: 1014 km
right ascension of ascending node: 334.6901°
argument of perigee: 27.3944°
revolutions per day: 13.70236345
mean anomaly at epoch: 332.8286°
orbit number at epoch: 83003

The dashed part of the orbit path shows where the satellite is in the earth's shadow,  

DLR